{"data":{"norad_id":63056,"epoch":"2026-09-20T08:19:20.345664Z","epoch_age_seconds":178835,"freshness":"STALE","line1":"1 63056U 25035E   26263.34676326  .00143862  00000+0  11046-2 0  9998","line2":"2 63056  42.9986 282.1685 0000727 248.9130 111.1660 15.70857082 91835","mean_motion":15.70857082,"eccentricity":7.27e-5,"inclination_deg":42.9986,"raan_deg":282.1685,"arg_perigee_deg":248.913,"mean_anomaly_deg":111.166,"bstar":0.0011046,"rev_number":9183,"period_min":91.669701623435,"perigee_km":355.95663425661,"apogee_km":356.93584265949,"semimajor_km":6734.583238458,"source":"CELESTRAK","updated_at":"2026-09-22T09:00:49.750309Z"}}